| time (UTC) | temp C | wind direction | speed KPH | gust KPH | rain 1hr cm | rain 24hr cm | rain mn cm | humidity % | barometer mb |
| 20260510103004 | 10 | 175 | 0.0 | 4.8 | 0.00 | 0.20 | 0.00 | 97 | 1011.7 |
| 20260510102004 | 10 | 254 | 3.2 | 9.7 | 0.00 | 0.20 | 0.00 | 97 | 1012.0 |
| 20260510101004 | 10 | 287 | 3.2 | 12.9 | 0.00 | 0.20 | 0.00 | 97 | 1011.9 |
| 20260510100004 | 10 | 165 | 4.8 | 14.5 | 0.00 | 0.20 | 0.00 | 97 | 1011.5 |
| 20260510094004 | 10 | 142 | 3.2 | 9.7 | 0.00 | 0.20 | 0.00 | 97 | 1011.2 |
| 20260510093004 | 10 | 158 | 3.2 | 11.3 | 0.00 | 0.20 | 0.00 | 97 | 1010.9 |
| 20260510092004 | 10 | 163 | 3.2 | 12.9 | 0.00 | 0.20 | 0.00 | 97 | 1011.1 |
| 20260510091004 | 10 | 175 | 3.2 | 9.7 | 0.00 | 0.20 | 0.00 | 97 | 1011.3 |
| 20260510090004 | 10 | 147 | 3.2 | 9.7 | 0.00 | 0.20 | 0.00 | 97 | 1011.1 |
| 20260510084004 | 10 | 153 | 3.2 | 4.8 | 0.00 | 0.20 | 0.00 | 97 | 1011.3 |
| 20260510083004 | 10 | 132 | 3.2 | 4.8 | 0.00 | 0.20 | 0.00 | 97 | 1011.1 |
| 20260510082004 | 10 | 132 | 3.2 | 8.0 | 0.00 | 0.20 | 0.00 | 97 | 1011.4 |
| 20260510081005 | 10 | 193 | 1.6 | 4.8 | 0.00 | 0.20 | 0.00 | 97 | 1011.6 |
| 20260510075004 | 10 | 193 | 3.2 | 4.8 | 0.00 | 0.20 | 0.00 | 97 | 1011.7 |
| 20260510074004 | 10 | 329 | 1.6 | 4.8 | 0.00 | 0.20 | 0.00 | 97 | 1011.7 |
| 20260510073004 | 10 | 329 | 0.0 | 8.0 | 0.00 | 0.20 | 0.00 | 96 | 1011.6 |
| 20260510072004 | 10 | 244 | 6.4 | 19.3 | 0.00 | 0.20 | 0.00 | 96 | 1011.8 |
| 20260510071004 | 10 | 318 | 14.5 | 24.1 | 0.00 | 0.20 | 0.00 | 97 | 1011.8 |
| 20260510070004 | 10 | 113 | 1.6 | 3.2 | 0.00 | 0.20 | 0.00 | 97 | 1010.8 |
| 20260510063006 | 10 | 113 | 0.0 | 0.0 | 0.00 | 0.20 | 0.00 | 97 | 1011.1 |
| 20260510062005 | 10 | 113 | 0.0 | 4.8 | 0.00 | 0.20 | 0.00 | 97 | 1011.2 |
| 20260510061006 | 10 | 111 | 1.6 | 9.7 | 0.00 | 0.20 | 0.00 | 96 | 1011.3 |
| 20260510060006 | 10 | 60 | 1.6 | 9.7 | 0.00 | 0.20 | 0.00 | 96 | 1011.4 |
| 20260510055006 | 11 | 339 | 4.8 | 9.7 | 0.00 | 0.20 | 0.00 | 97 | 1011.4 |
| 20260510054006 | 10 | 165 | 1.6 | 3.2 | 0.00 | 0.20 | 0.00 | 97 | 1010.8 |
| 20260510053006 | 10 | 165 | 1.6 | 8.0 | 0.00 | 0.20 | 0.00 | 97 | 1010.7 |
| 20260510052005 | 10 | 127 | 1.6 | 4.8 | 0.00 | 0.20 | 0.00 | 96 | 1010.8 |
| 20260510051005 | 10 | 128 | 0.0 | 4.8 | 0.00 | 0.20 | 0.00 | 96 | 1010.9 |
| 20260510050005 | 10 | 128 | 1.6 | 4.8 | 0.00 | 0.20 | 0.00 | 96 | 1010.8 |
| 20260510045005 | 10 | 128 | 1.6 | 4.8 | 0.00 | 0.20 | 0.00 | 96 | 1010.9 |
| 20260510044005 | 10 | 125 | 0.0 | 3.2 | 0.00 | 0.20 | 0.00 | 96 | 1011.0 |
| 20260510043005 | 10 | 125 | 1.6 | 4.8 | 0.00 | 0.20 | 0.00 | 96 | 1011.1 |
| 20260510042005 | 10 | 126 | 1.6 | 3.2 | 0.00 | 0.20 | 0.00 | 95 | 1011.1 |
| 20260510035006 | 10 | 126 | 1.6 | 4.8 | 0.00 | 0.20 | 0.20 | 96 | 1010.9 |
| 20260510033005 | 10 | 157 | 3.2 | 8.0 | 0.00 | 0.20 | 0.20 | 95 | 1011.0 |
| 20260510032005 | 10 | 131 | 3.2 | 4.8 | 0.00 | 0.20 | 0.20 | 94 | 1011.0 |
| 20260510031005 | 10 | 130 | 1.6 | 3.2 | 0.00 | 0.20 | 0.20 | 94 | 1010.9 |
| 20260510030005 | 10 | 130 | 1.6 | 4.8 | 0.00 | 0.20 | 0.20 | 94 | 1011.0 |
| 20260510024005 | 11 | 130 | 0.0 | 3.2 | 0.00 | 0.20 | 0.20 | 93 | 1010.9 |
| 20260510023006 | 11 | 130 | 0.0 | 3.2 | 0.00 | 0.20 | 0.20 | 93 | 1010.8 |
| 20260510022005 | 11 | 130 | 0.0 | 3.2 | 0.00 | 0.20 | 0.20 | 92 | 1010.8 |
| 20260510021005 | 12 | 130 | 1.6 | 4.8 | 0.00 | 0.20 | 0.20 | 92 | 1010.7 |
| 20260510020005 | 12 | 117 | 0.0 | 4.8 | 0.00 | 0.20 | 0.20 | 92 | 1010.6 |
| 20260510015006 | 12 | 128 | 3.2 | 12.9 | 0.00 | 0.20 | 0.20 | 93 | 1010.6 |
| 20260510014005 | 12 | 155 | 3.2 | 11.3 | 0.00 | 0.20 | 0.20 | 93 | 1010.6 |
| 20260510013005 | 12 | 111 | 1.6 | 8.0 | 0.00 | 0.20 | 0.20 | 93 | 1010.5 |
| 20260510012005 | 12 | 136 | 1.6 | 4.8 | 0.00 | 0.20 | 0.20 | 93 | 1010.6 |
| 20260510005005 | 12 | 134 | 3.2 | 4.8 | 0.00 | 0.20 | 0.20 | 91 | 1010.2 |
| 20260510004006 | 12 | 134 | 1.6 | 4.8 | 0.00 | 0.20 | 0.20 | 89 | 1010.1 |
| 20260510003005 | 12 | 134 | 0.0 | 4.8 | 0.00 | 0.20 | 0.20 | 89 | 1010.0 |
| 20260510002004 | 13 | 133 | 3.2 | 8.0 | 0.00 | 0.20 | 0.20 | 89 | 1009.7 |
| 20260510000005 | 13 | 156 | 4.8 | 19.3 | 0.00 | 0.20 | 0.20 | 86 | 1009.6 |
| 20260509235005 | 14 | 167 | 8.0 | 16.1 | 0.00 | 0.20 | 0.20 | 83 | 1009.6 |
| 20260509234005 | 14 | 146 | 4.8 | 12.9 | 0.00 | 0.20 | 0.20 | 81 | 1009.6 |
| 20260509233005 | 15 | 148 | 3.2 | 11.3 | 0.00 | 0.20 | 0.20 | 80 | 1009.6 |
| 20260509232005 | 15 | 149 | 3.2 | 11.3 | 0.00 | 0.20 | 0.20 | 79 | 1009.7 |
| 20260509231005 | 15 | 151 | 3.2 | 4.8 | 0.00 | 0.20 | 0.20 | 77 | 1009.7 |
| 20260509230005 | 16 | 132 | 3.2 | 4.8 | 0.00 | 0.20 | 0.20 | 77 | 1009.6 |
| 20260509225005 | 16 | 164 | 1.6 | 3.2 | 0.00 | 0.20 | 0.20 | 76 | 1009.6 |
| 20260509224005 | 16 | 250 | 1.6 | 4.8 | 0.00 | 0.20 | 0.20 | 75 | 1009.5 |
| 20260509223005 | 16 | 251 | 3.2 | 4.8 | 0.00 | 0.20 | 0.20 | 75 | 1009.5 |
| 20260509222005 | 16 | 292 | 4.8 | 11.3 | 0.00 | 0.20 | 0.20 | 76 | 1009.7 |
| 20260509220005 | 15 | 252 | 4.8 | 11.3 | 0.00 | 0.20 | 0.20 | 80 | 1009.7 |
| 20260509215005 | 14 | 269 | 8.0 | 14.5 | 0.00 | 0.20 | 0.20 | 82 | 1009.7 |
| 20260509213006 | 13 | 238 | 3.2 | 4.8 | 0.00 | 0.20 | 0.20 | 85 | 1009.6 |
| 20260509212005 | 14 | 225 | 3.2 | 12.9 | 0.00 | 0.20 | 0.20 | 84 | 1009.7 |
| 20260509211005 | 14 | 266 | 4.8 | 11.3 | 0.00 | 0.20 | 0.20 | 83 | 1009.8 |
| 20260509210005 | 14 | 260 | 1.6 | 19.3 | 0.00 | 0.20 | 0.20 | 83 | 1010.1 |
| 20260509205005 | 15 | 285 | 11.3 | 19.3 | 0.00 | 0.20 | 0.20 | 80 | 1010.3 |
| 20260509203004 | 14 | 295 | 9.7 | 14.5 | 0.00 | 0.20 | 0.20 | 88 | 1010.3 |
| 20260509202004 | 13 | 295 | 3.2 | 4.8 | 0.00 | 0.20 | 0.20 | 88 | 1010.3 |
| 20260509201005 | 13 | 314 | 3.2 | 4.8 | 0.00 | 0.20 | 0.20 | 89 | 1010.2 |
| 20260509200005 | 13 | 171 | 1.6 | 8.0 | 0.03 | 0.20 | 0.20 | 89 | 1010.2 |
| 20260509195005 | 13 | 167 | 0.0 | 4.8 | 0.03 | 0.20 | 0.20 | 91 | 1010.3 |
| 20260509193004 | 12 | 105 | 0.0 | 4.8 | 0.05 | 0.20 | 0.20 | 92 | 1010.5 |
| 20260509192004 | 12 | 157 | 3.2 | 8.0 | 0.08 | 0.20 | 0.20 | 93 | 1010.7 |
| 20260509191005 | 12 | 240 | 3.2 | 4.8 | 0.08 | 0.20 | 0.20 | 92 | 1010.9 |
| 20260509185005 | 12 | 242 | 1.6 | 4.8 | 0.05 | 0.18 | 0.18 | 91 | 1011.5 |
| 20260509183005 | 12 | 234 | 0.0 | 4.8 | 0.03 | 0.15 | 0.15 | 91 | 1011.5 |
| 20260509181004 | 12 | 228 | 3.2 | 9.7 | 0.03 | 0.13 | 0.13 | 90 | 1011.7 |
| 20260509180004 | 12 | 247 | 4.8 | 8.0 | 0.03 | 0.13 | 0.13 | 91 | 1011.8 |
| 20260509175005 | 12 | 261 | 8.0 | 12.9 | 0.05 | 0.13 | 0.13 | 92 | 1011.7 |
| 20260509174004 | 12 | 283 | 4.8 | 8.0 | 0.10 | 0.13 | 0.13 | 91 | 1011.6 |
| 20260509173005 | 12 | 183 | 1.6 | 4.8 | 0.13 | 0.13 | 0.13 | 91 | 1011.5 |
| 20260509172005 | 12 | 355 | 4.8 | 11.3 | 0.10 | 0.10 | 0.10 | 90 | 1011.5 |
| 20260509171004 | 13 | 306 | 9.7 | 16.1 | 0.10 | 0.10 | 0.10 | 90 | 1011.3 |
| 20260509170004 | 13 | 271 | 3.2 | 11.3 | 0.10 | 0.10 | 0.10 | 89 | 1011.0 |
| 20260509165005 | 13 | 284 | 4.8 | 12.9 | 0.08 | 0.08 | 0.08 | 87 | 1011.3 |
| 20260509164005 | 13 | 287 | 9.7 | 16.1 | 0.03 | 0.03 | 0.03 | 86 | 1011.5 |
| 20260509161004 | 13 | 240 | 4.8 | 16.1 | 0.00 | 0.00 | 0.00 | 83 | 1011.8 |
| 20260509160005 | 13 | 220 | 9.7 | 19.3 | 0.00 | 0.00 | 0.00 | 82 | 1011.9 |
| 20260509155005 | 13 | 228 | 4.8 | 14.5 | 0.00 | 0.00 | 0.00 | 82 | 1012.0 |
| 20260509153005 | 13 | 211 | 6.4 | 12.9 | 0.00 | 0.00 | 0.00 | 82 | 1012.0 |
| 20260509152005 | 13 | 175 | 6.4 | 14.5 | 0.00 | 0.00 | 0.00 | 82 | 1012.0 |
| 20260509150004 | 13 | 187 | 4.8 | 19.3 | 0.00 | 0.00 | 0.00 | 83 | 1011.9 |
| 20260509145005 | 13 | 167 | 11.3 | 19.3 | 0.00 | 0.00 | 0.00 | 83 | 1011.8 |
| 20260509144005 | 13 | 180 | 8.0 | 19.3 | 0.00 | 0.00 | 0.00 | 83 | 1011.7 |
| 20260509143004 | 13 | 173 | 6.4 | 16.1 | 0.00 | 0.00 | 0.00 | 83 | 1011.5 |
| 20260509142005 | 13 | 159 | 9.7 | 19.3 | 0.00 | 0.00 | 0.00 | 83 | 1011.7 |
| 20260509141005 | 12 | 185 | 8.0 | 12.9 | 0.00 | 0.00 | 0.00 | 84 | 1011.6 |
| 20260509140006 | 12 | 217 | 6.4 | 24.1 | 0.00 | 0.00 | 0.00 | 83 | 1011.6 |
| 20260509134005 | 12 | 178 | 11.3 | 19.3 | 0.00 | 0.00 | 0.00 | 82 | 1011.5 |
| 20260509133004 | 12 | 175 | 8.0 | 14.5 | 0.00 | 0.00 | 0.00 | 82 | 1011.4 |
| 20260509132004 | 12 | 182 | 9.7 | 19.3 | 0.00 | 0.00 | 0.00 | 81 | 1011.3 |
| 20260509131005 | 12 | 198 | 8.0 | 19.3 | 0.00 | 0.00 | 0.00 | 82 | 1011.4 |
| 20260509130004 | 12 | 171 | 9.7 | 16.1 | 0.00 | 0.00 | 0.00 | 82 | 1011.5 |
| 20260509125004 | 12 | 165 | 8.0 | 14.5 | 0.00 | 0.00 | 0.00 | 82 | 1011.4 |
| 20260509124004 | 12 | 189 | 4.8 | 11.3 | 0.00 | 0.00 | 0.00 | 82 | 1011.5 |
| 20260509122004 | 11 | 151 | 4.8 | 14.5 | 0.00 | 0.00 | 0.00 | 82 | 1011.5 |
| 20260509121004 | 11 | 164 | 4.8 | 16.1 | 0.00 | 0.00 | 0.00 | 82 | 1011.5 |
| 20260509115004 | 11 | 174 | 8.0 | 22.5 | 0.00 | 0.00 | 0.00 | 82 | 1011.4 |
| 20260509114004 | 11 | 165 | 9.7 | 16.1 | 0.00 | 0.00 | 0.00 | 82 | 1011.5 |
| 20260509113004 | 11 | 160 | 8.0 | 19.3 | 0.00 | 0.00 | 0.00 | 81 | 1011.4 |
| 20260509112004 | 11 | 155 | 8.0 | 14.5 | 0.00 | 0.00 | 0.00 | 82 | 1011.3 |
| 20260509111004 | 11 | 139 | 4.8 | 14.5 | 0.00 | 0.00 | 0.00 | 82 | 1011.2 |
| 20260509110004 | 11 | 175 | 3.2 | 8.0 | 0.00 | 0.00 | 0.00 | 82 | 1011.3 |
| 20260509105004 | 11 | 204 | 3.2 | 9.7 | 0.00 | 0.00 | 0.00 | 83 | 1011.1 |